パンスターズ彗星

C/2019 A9 ( PanSTARRS )

English version
Home page
Updated on May 20, 2019

---------------------------------------------------------------------

・ プロフィール

発見日 2019年1月14日
発見光度 20.3等
発見者 Pan-STARRS 1 telescope (Haleakala)

・ 軌道要素

Epoch 2019 July 16.0 TT = JDT 2458680.5
T 2019 July 26.52726 TT                                 MPCW
q   1.4264047            (2000.0)            P               Q
z  +0.0258082      Peri.  237.80160     -0.16010147     +0.07117780
 +/-0.0000000      Node   278.36865     +0.80749758     -0.56420590
e   0.9631871      Incl.   84.34134     -0.56772808     -0.82256028
From 166 observations 2018 Dec. 18-2019 Apr. 22, mean residual 0".4.

・ 星図

・ 光度変化

        m1 = 11.0 + 5 logΔ + 15.0 log r

---------------------------------------------------------------------

軌道要素はM.P.E.C. 2019-J142に掲載されたものです。
星図はステラナビゲータ Ver.10 (アストロアーツ) で作成したものです。
光度グラフはComet for Windowsで作成したものです。

---------------------------------------------------------------------

Copyright(C) Seiichi Yoshida (comet@aerith.net). All rights reserved.